Location: Harwich
(41.7160°N, 69.9939°W)
Time: 13:02:47
(UTC+01:00)

A-11 Canister half - Pass Details

Date: 04 December 2023
Orbit: 1526 x 1682 km, 47.3° (Epoch: 01 March)

Event Time Altitude Azimuth Distance (km) Brightness Sun altitude
Rises 07:59:15 0° 297° (WNW) 4,884 - -53.2°
Reaches altitude 10° 08:02:37 10° 291° (WNW) 3,875 - -52.6°
Maximum altitude 08:11:39 43° 225° (SW) 2,134 - -51.1°
Drops below altitude 10° 08:20:23 10° 158° (SSE) 3,747 - -49.5°
Exits shadow 08:21:28 - 155° (SSE) 4,065 11.3 -49.3°
Sets 08:23:37 0° 151° (SSE) 4,710 11.7 -48.9°
